Temp
18 18 18 18 18 18 18 18 18 19 19 19 19 19 19 19 19 19 19 19 20 20 20 20 20 20 20 20 20 20 20 21 21 19 18 17 16 17 18 19 20 21 22 22 22 21 22 22 21 20 22 21 19 19 17 16 15 17 21 22 21 20 19 19 18 17 17 17 14 11 12 14 14 10 9 9 9 10 9 9 10 10 9 9 9 6 5 6
18 18 18 18 18 18 18 19 19 19 19 19 19 19 19 19 19 19 19 20 20 21 21 21 21 20 20 21 20 21 20 21 21 19 18 17 17 18 19 20 20 21 21 22 22 21 22 22 20 20 22 21 18 19 18 17 16 18 20 21 21 20 17 16 17 16 16 17 15 12 12 13 14 12 10 11 12 10 10 11 10 10 10 10 9 7 6 5
18 18 18 18 18 18 19 19 19 19 19 19 19 19 19 19 19 19 20 20 20 21 21 20 20 20 20 21 20 21 20 21 20 18 18 17 18 19 19 20 20 21 21 21 22 21 22 21 20 20 21 20 17 18 19 17 17 16 18 22 20 17 15 14 15 15 14 15 15 13 11 11 12 11 10 11 12 10 11 13 11 10 11 12 11 8 6 6
18 18 18 19 19 19 19 19 19 19 19 19 19 20 20 19 20 20 20 20 20 21 21 20 20 20 20 21 21 20 20 21 19 17 18 18 18 19 20 20 20 21 21 21 21 21 21 20 20 20 21 20 17 17 18 16 16 16 17 20 17 14 16 14 13 13 11 12 14 12 10 11 11 10 10 12 12 13 13 14 14 13 13 14 13 9 7 7
18 18 18 19 19 19 19 19 19 19 19 19 19 20 20 20 20 20 20 20 20 21 21 21 21 20 20 21 20 19 20 21 19 17 18 17 18 19 20 20 20 20 20 21 21 21 21 20 20 19 20 20 18 18 18 14 15 16 15 15 14 14 16 13 11 11 10 11 12 11 11 12 10 9 10 11 13 15 15 14 14 14 15 14 13 10 8 7
19 19 19 19 19 19 19 19 19 19 19 19 19 20 20 19 20 20 20 21 21 21 21 21 21 20 20 20 20 19 21 20 17 17 18 17 18 19 20 20 20 20 20 21 21 21 21 20 21 19 19 18 17 18 17 13 14 17 15 13 13 13 13 12 10 9 9 12 13 12 12 11 10 11 11 10 12 15 13 11 11 12 12 11 11 10 9 8
18 18 19 19 19 19 19 19 19 19 19 19 20 20 19 19 20 20 20 21 21 21 21 21 21 20 20 20 20 20 20 18 16 17 17 17 19 20 20 20 20 20 20 21 21 21 20 21 20 18 18 18 17 16 15 14 15 17 16 13 12 11 11 10 9 8 8 11 11 10 11 11 11 12 10 9 12 13 11 8 7 8 7 8 9 10 9 9
18 18 18 18 19 19 19 19 19 19 19 19 20 19 19 19 20 20 20 21 21 21 21 21 21 20 21 21 21 20 18 17 16 17 17 18 19 19 20 20 20 20 20 20 19 20 20 20 19 17 18 17 16 16 14 15 17 16 15 13 12 11 10 9 8 9 8 9 9 9 11 11 11 10 8 9 12 13 11 9 7 7 6 7 8 9 9 9
18 18 18 19 19 19 19 19 19 19 19 19 20 19 19 19 20 20 20 20 20 21 20 21 21 20 21 20 20 21 18 16 16 17 17 18 19 19 20 20 20 21 20 18 18 19 20 19 17 18 18 16 16 15 13 16 18 14 13 13 12 11 10 9 9 9 9 9 8 10 13 11 9 8 10 12 12 12 11 10 8 7 7 8 8 9 9 9
18 18 19 19 19 19 19 19 19 19 19 20 19 19 20 20 20 20 20 21 21 21 20 21 21 21 20 20 21 21 17 16 16 17 17 18 19 20 20 19 20 20 19 17 16 17 19 18 17 18 18 16 15 14 12 15 15 12 12 13 12 11 10 10 10 9 9 10 9 10 13 11 8 8 13 13 9 8 9 9 8 7 8 9 9 9 9 9
18 19 19 19 19 19 19 19 19 19 20 19 19 20 20 20 20 20 20 21 21 21 20 20 21 21 20 20 21 20 16 16 16 17 18 18 19 19 19 19 19 20 18 17 15 15 17 17 16 17 18 17 15 14 12 12 12 12 12 14 13 12 11 11 11 10 10 11 9 9 11 10 8 8 13 13 7 7 9 9 8 7 8 9 9 9 9 8
18 19 19 19 19 19 19 19 19 19 19 19 19 20 20 20 20 20 20 21 21 21 20 20 20 21 20 20 19 17 16 16 17 17 18 18 18 18 18 18 19 19 19 17 15 15 16 16 16 17 16 16 15 14 13 11 11 12 13 15 14 13 13 12 11 10 10 11 8 8 11 11 9 10 14 12 8 7 8 9 9 8 8 9 8 8 8 8
19 19 19 19 19 19 19 19 19 19 19 20 20 20 20 20 20 20 21 21 21 21 20 20 20 20 21 19 17 16 16 17 17 17 18 18 17 17 18 18 18 18 18 17 15 15 16 16 17 16 14 15 14 13 13 12 12 13 13 14 15 16 15 12 10 10 10 10 8 9 15 16 13 13 14 11 8 8 8 10 10 9 9 8 8 8 8 8
19 19 19 19 19 19 19 19 19 19 19 20 20 20 20 20 20 20 21 21 21 21 21 20 20 21 19 18 17 17 17 17 17 18 18 18 17 18 17 18 18 17 17 16 15 16 16 16 17 14 13 13 13 12 14 13 13 14 13 14 15 18 17 12 10 11 11 10 8 10 15 18 16 15 14 10 8 9 10 12 12 11 9 9 9 8 8 9
19 19 19 19 19 19 19 19 19 19 20 20 20 20 20 20 20 20 21 21 21 21 21 20 21 21 19 17 17 17 17 17 17 17 17 17 18 18 18 18 18 17 17 17 16 16 16 17 16 15 13 11 13 14 15 15 15 14 15 17 16 17 17 13 10 10 12 10 9 11 15 18 18 16 12 8 8 8 10 13 13 12 10 9 9 9 9 9
19 19 19 19 19 19 19 19 19 19 19 19 20 20 20 20 20 20 21 20 21 21 21 21 20 20 20 18 17 17 17 17 16 16 16 17 17 18 18 18 18 18 17 17 17 16 17 16 13 12 14 14 15 17 17 17 17 15 16 19 17 16 17 16 11 8 10 11 10 12 14 16 17 14 10 7 8 8 9 12 12 12 11 10 10 9 9 9
19 19 19 19 19 19 19 19 19 19 19 19 20 20 20 20 20 21 20 20 21 20 20 21 20 20 19 18 17 17 16 15 16 15 16 16 17 17 18 18 17 17 18 17 18 17 16 15 11 12 15 15 15 16 18 19 19 18 16 17 16 15 15 16 13 9 9 11 11 12 12 13 15 15 13 10 9 9 10 11 11 12 11 11 11 10 9 9
19 18 19 19 19 19 19 20 19 19 19 19 19 20 20 20 20 20 20 20 20 20 21 21 20 21 19 17 17 16 15 15 15 15 16 16 16 17 17 17 16 17 18 18 18 17 16 15 14 16 17 16 16 17 19 19 18 18 17 17 16 14 14 15 14 11 9 10 11 12 12 13 14 15 15 14 12 10 10 11 11 11 11 11 11 10 10 9
18 18 18 19 19 19 19 20 20 20 20 20 20 20 20 20 20 20 20 20 20 20 20 18 18 20 19 16 16 15 15 15 15 15 15 16 16 16 17 16 16 17 18 19 18 15 15 16 17 18 19 17 16 16 17 16 15 16 15 15 15 15 15 15 14 10 9 10 11 12 12 13 14 14 15 15 13 11 11 11 11 11 11 10 10 10 9 9
18 18 18 19 19 19 20 20 20 20 20 20 20 20 20 20 20 20 18 16 15 15 16 15 14 16 16 15 14 15 15 15 15 15 15 15 15 16 16 16 17 18 17 17 17 12 11 18 19 18 18 16 13 12 12 12 12 13 13 13 14 14 15 15 13 9 8 10 12 13 12 13 14 14 15 14 12 11 11 11 10 11 11 10 10 10 10 10
18 18 18 19 19 19 20 20 20 20 20 20 20 20 20 19 20 20 17 14 12 10 12 13 12 14 15 14 13 14 15 16 16 15 15 15 15 16 17 17 18 19 14 12 14 11 12 19 19 15 14 12 11 10 10 11 11 12 13 13 13 13 14 14 11 9 8 9 12 12 11 12 14 15 15 13 11 11 11 11 11 12 11 11 10 10 10 10
19 19 19 19 19 19 20 20 20 20 20 19 20 19 18 18 19 19 18 17 14 11 12 12 12 14 14 13 13 13 15 17 17 16 15 14 16 17 17 17 18 18 13 11 15 16 17 19 15 11 10 10 9 9 10 11 11 12 13 13 14 14 14 13 10 8 9 9 12 12 10 12 14 15 14 12 11 11 11 10 11 11 11 11 11 11 11 10
19 19 19 19 19 20 20 20 20 20 20 19 19 18 18 18 18 17 18 19 17 13 13 14 14 15 15 15 13 13 16 16 16 16 13 14 16 15 16 18 17 16 15 16 18 19 20 17 11 8 9 10 10 9 11 11 12 13 13 14 15 14 13 14 11 9 10 10 10 10 9 12 14 15 14 11 9 9 9 8 8 9 10 11 11 11 10 10
19 19 19 20 20 20 20 20 20 20 20 19 19 18 18 18 17 17 18 18 17 15 13 13 13 14 15 14 13 14 16 14 14 15 13 13 15 13 14 15 15 16 16 15 16 18 18 12 7 7 9 11 12 10 11 13 14 14 13 14 15 13 13 13 12 10 11 10 8 10 13 15 15 15 16 12 9 9 9 8 9 8 8 9 9 9 9 9
19 20 20 20 20 20 20 20 20 19 19 19 19 18 17 17 17 17 18 18 18 16 14 13 13 14 14 14 14 14 14 13 13 13 11 12 13 13 13 11 14 18 15 12 14 17 15 8 6 9 10 11 12 12 12 13 15 15 13 13 13 12 12 11 11 11 13 13 9 10 15 18 17 16 17 14 12 13 11 10 12 12 10 9 9 10 10 10
20 20 20 20 21 20 20 20 19 19 19 19 18 18 17 17 16 17 18 19 19 17 16 15 15 15 14 14 13 13 15 15 12 11 11 11 11 13 14 12 13 15 13 12 14 14 11 6 7 10 11 11 12 13 12 12 15 15 12 11 10 10 10 10 10 11 14 15 11 9 14 17 17 18 16 13 13 15 14 13 15 14 13 11 10 11 12 11
20 20 20 21 21 21 21 20 19 19 19 18 18 18 17 17 17 17 18 20 20 18 17 16 15 15 15 12 12 14 18 16 12 11 10 11 10 12 15 15 14 14 11 12 16 13 9 7 8 9 11 12 13 14 13 11 14 15 10 8 9 9 10 10 10 11 12 13 11 10 12 13 15 17 14 11 13 16 16 16 16 15 15 14 12 12 12 12
20 20 21 21 20 21 21 20 20 19 19 19 18 18 17 17 16 17 19 20 19 17 16 16 15 14 14 11 11 15 15 14 15 14 9 10 11 12 15 16 15 15 10 13 19 14 9 10 10 10 11 13 14 13 11 11 14 12 7 8 9 8 9 9 9 11 10 11 13 12 11 13 15 17 13 11 15 16 16 17 16 16 16 15 14 13 12 12
20 21 21 21 21 20 20 20 20 19 19 18 18 18 17 17 17 18 20 20 18 17 16 15 15 14 13 13 13 13 13 13 15 14 10 11 12 12 14 13 12 14 10 12 17 13 9 9 9 11 13 13 12 10 8 11 12 9 7 7 7 7 8 9 9 11 9 11 14 12 10 13 16 18 16 14 16 17 17 17 16 16 15 14 14 14 13 12
20 21 21 21 21 20 20 20 19 19 19 18 18 17 17 17 18 20 20 19 18 17 15 16 16 14 14 15 16 14 13 14 12 11 12 12 12 11 10 9 10 13 11 11 13 11 8 6 7 9 11 11 10 7 6 8 8 7 8 9 9 8 8 9 9 10 11 13 13 10 10 12 14 17 18 16 16 16 16 16 16 16 15 15 14 14 13 12
21 21 21 21 20 20 20 20 19 19 18 18 17 17 18 19 19 20 19 18 18 17 16 16 15 13 13 15 16 15 14 14 11 12 15 13 13 14 12 12 13 14 14 14 13 10 8 8 9 8 7 8 9 8 7 6 6 8 10 12 13 12 10 10 10 10 13 15 12 8 9 10 13 16 18 17 15 14 14 15 15 15 15 15 14 13 12 11
20 21 20 20 20 20 20 19 19 18 18 18 17 17 19 19 19 20 19 17 18 17 16 15 14 13 12 13 15 13 13 14 12 12 13 12 14 15 14 15 16 16 18 17 15 14 12 10 9 8 6 7 10 12 10 8 8 10 12 13 14 15 14 13 14 13 15 14 10 8 9 10 13 16 17 16 16 15 13 13 13 13 13 13 12 12 11 10
20 20 20 20 20 20 19 19 18 18 18 17 17 18 19 20 19 18 18 19 18 15 14 13 12 11 12 14 15 11 11 13 12 11 11 11 14 14 11 10 12 15 17 15 15 17 15 11 8 9 9 7 9 14 14 12 12 12 13 14 14 15 14 13 14 14 14 13 9 7 9 10 13 16 15 15 16 15 12 11 11 10 10 11 11 10 9 9
19 19 19 19 19 19 18 18 18 18 17 17 19 20 19 20 19 16 17 19 15 13 12 11 12 12 12 14 13 10 13 14 11 11 12 12 15 16 13 10 9 13 15 15 15 15 16 15 11 10 10 8 8 11 11 12 12 11 11 12 14 14 13 13 14 14 13 12 10 8 9 12 15 15 14 13 13 12 10 9 9 9 10 9 9 9 9 10
19 19 19 18 18 18 17 17 17 17 18 18 20 20 19 20 19 17 18 17 14 14 13 10 11 15 15 13 11 9 12 14 11 12 13 14 16 16 15 13 10 11 14 16 15 13 16 17 10 7 7 7 8 7 6 10 12 10 9 11 13 13 14 13 11 10 9 9 10 9 11 14 15 14 14 13 12 11 10 11 11 12 11 10 10 11 11 11
18 18 18 18 17 17 17 17 17 17 18 19 20 19 19 19 17 17 16 14 14 14 15 13 13 17 17 15 13 10 11 12 12 14 14 13 14 14 13 11 9 9 12 15 15 14 16 15 8 6 7 6 7 7 6 9 12 11 10 12 11 9 11 12 9 7 6 8 11 11 12 14 15 15 15 14 14 13 13 13 13 13 12 12 11 11 11 11
18 18 17 16 16 17 17 17 17 18 18 19 20 18 17 16 14 13 13 11 12 12 15 17 16 16 17 16 15 13 11 12 12 14 15 14 14 13 12 10 6 7 9 11 14 13 14 15 9 7 9 7 4 5 6 6 9 11 12 11 9 7 10 11 10 9 9 10 12 11 12 14 14 14 15 14 14 14 13 13 12 12 12 12 11 11 10 10
17 17 17 16 16 16 17 17 17 18 18 19 19 17 15 14 11 10 9 10 11 12 15 18 16 15 15 15 16 13 12 14 14 14 15 15 14 13 12 10 7 5 6 7 12 12 12 15 11 6 8 8 4 6 9 7 6 9 10 9 9 10 11 11 10 11 11 11 11 11 10 11 12 13 14 14 13 13 12 12 12 11 11 11 11 11 10 10
17 17 17 16 16 16 17 17 17 18 19 19 20 17 14 13 10 6 6 8 11 13 15 16 14 14 14 14 15 13 11 13 14 14 15 15 15 12 10 10 8 6 5 6 11 12 11 14 13 7 6 8 8 9 12 10 7 7 8 8 8 9 10 10 9 10 10 10 11 10 10 12 13 13 13 13 12 12 11 11 11 11 11 11 11 10 10 9
17 18 18 16 16 17 17 17 18 19 19 16 17 16 12 11 10 5 3 6 10 12 13 14 13 14 14 12 12 12 11 11 12 13 14 13 14 13 9 8 9 8 6 6 9 11 11 13 14 10 7 9 11 11 12 13 10 9 9 9 8 8 8 9 8 8 9 10 10 9 9 12 13 12 12 13 12 11 11 10 11 11 11 11 10 10 9 9
16 18 18 16 16 17 16 18 16 14 16 15 14 13 11 10 10 6 3 3 7 9 10 12 13 13 14 13 12 11 11 11 11 12 13 12 14 14 8 5 7 8 8 9 10 10 11 12 13 12 11 13 13 8 7 9 9 10 11 11 10 9 8 9 9 7 6 8 9 8 8 11 13 12 12 12 11 11 11 11 11 10 10 10 10 9 9 8
17 18 17 15 17 17 17 18 11 8 14 15 12 11 9 8 9 8 5 4 6 8 8 10 11 11 12 12 12 11 11 12 11 11 13 12 13 13 7 2 3 5 8 10 9 8 9 11 11 12 13 13 9 5 4 5 7 8 9 9 9 9 9 11 11 8 6 6 6 6 6 9 12 11 11 11 11 11 11 11 10 10 10 9 9 9 8 8
18 18 16 15 16 16 17 17 12 11 14 11 7 7 7 7 9 8 7 7 8 8 9 10 10 11 11 11 11 10 11 12 12 12 12 11 11 9 4 1 2 5 8 10 9 7 8 11 11 12 14 11 6 4 4 4 6 8 8 7 7 8 8 8 8 7 7 7 7 7 7 9 12 11 11 12 12 11 11 10 10 9 9 9 8 8 8 8
15 15 15 16 17 17 18 18 16 16 14 10 9 9 7 6 8 8 9 9 9 9 10 11 10 10 10 9 9 11 11 12 13 12 11 11 10 5 1 1 3 6 8 8 8 8 10 12 12 12 14 12 10 10 8 6 7 9 9 6 5 5 5 5 5 5 7 8 8 8 8 10 13 12 12 12 11 11 10 10 9 8 8 8 8 7 7 7
14 14 14 15 15 15 15 14 15 17 15 13 13 12 10 8 7 7 8 9 7 8 10 10 8 9 8 8 9 9 10 12 13 11 9 10 9 4 2 2 3 5 6 4 5 7 9 11 11 12 13 13 13 13 12 10 10 9 8 6 4 4 4 6 6 6 7 7 7 8 8 10 12 12 12 11 10 10 9 8 8 8 7 7 7 7 7 7
16 17 16 16 15 13 11 8 11 16 15 14 15 12 11 12 8 5 6 8 7 7 8 9 7 8 8 8 10 10 9 10 11 10 9 10 10 5 2 2 3 4 4 3 3 6 8 8 9 11 12 12 13 12 10 9 10 9 9 7 5 4 3 5 7 7 7 6 6 8 8 9 10 10 10 10 9 8 8 7 7 7 7 7 6 6 6 7
16 17 16 16 16 15 13 10 11 14 13 14 15 12 12 13 11 8 7 7 7 6 7 8 7 9 10 10 11 11 10 9 9 9 9 9 9 6 2 2 3 3 3 3 4 6 8 8 8 8 10 10 10 10 8 8 8 9 8 7 6 4 3 4 6 7 7 6 6 9 9 8 9 9 9 8 7 7 7 7 6 6 6 6 6 6 6 6
14 15 11 11 14 16 15 13 11 12 12 12 12 11 12 13 13 12 9 7 6 6 8 10 8 9 11 10 11 12 10 10 10 9 9 8 8 8 5 3 3 3 4 5 5 6 9 9 6 5 7 8 8 8 8 7 7 7 7 7 7 5 3 4 5 7 7 6 7 9 9 8 8 8 8 7 7 7 6 6 6 6 5 5 6 6 6 5
12 13 9 8 12 13 11 9 10 12 13 12 11 11 12 14 14 12 9 8 9 7 8 12 12 10 9 9 10 11 11 12 12 11 10 8 7 8 9 7 4 3 5 6 5 4 7 9 5 3 6 8 7 6 6 6 6 6 6 7 7 6 5 5 5 6 6 5 6 7 7 6 7 7 7 7 7 6 6 5 5 5 5 5 5 5 5 4
13 15 12 10 11 9 7 7 10 12 12 11 13 12 11 13 14 11 9 10 13 10 8 11 13 10 8 8 9 11 11 12 12 11 9 9 8 8 9 9 6 4 5 6 5 4 6 8 5 4 7 8 6 5 5 6 7 7 7 7 7 6 6 5 4 5 5 5 6 6 5 5 6 7 6 6 6 6 5 5 4 4 5 5 5 5 4 4
12 12 12 15 14 9 8 9 9 13 13 12 13 13 11 12 12 11 10 9 10 11 9 10 12 9 7 7 8 10 10 9 9 8 7 7 8 7 7 7 6 6 5 4 4 4 6 6 5 5 8 9 6 5 7 6 5 6 7 7 6 6 7 6 6 6 6 5 5 5 5 5 6 6 5 5 5 4 4 4 4 4 5 5 4 4 4 3
11 11 11 15 15 10 8 10 10 12 14 13 12 12 12 11 9 9 12 10 6 8 8 8 9 9 8 9 8 7 6 5 5 4 3 4 4 4 4 4 4 6 6 4 3 3 4 6 6 6 8 9 8 7 7 6 6 7 7 6 6 6 6 6 6 7 6 6 5 5 5 5 5 5 4 4 4 3 3 3 3 4 4 4 4 3 3 3
Height
843 844 844 845 845 845 845 845 845 845 845 845 845 845 845 845 845 845 845 845 844 844 843 843 843 842 842 841 841 841 840 840 838 838 840 845 845 842 840 838 836 835 835 834 834 834 833 833 833 833 832 834 837 839 841 844 845 841 840 841 841 847 852 852 855 857 856 858 867 875 874 870 871 879 883 883 882 881 883 882 881 880 879 878 877 878 879 879
844 844 845 845 845 846 846 846 846 846 846 845 846 845 846 846 845 845 846 845 845 844 843 843 843 842 842 841 841 840 840 840 839 840 844 846 844 841 839 837 837 836 836 835 835 835 834 834 834 833 833 836 841 840 841 845 845 845 845 842 843 849 855 858 856 858 860 858 863 872 873 871 870 875 882 879 875 880 880 876 878 878 875 875 876 877 878 879
845 845 846 846 846 846 846 846 846 846 846 846 846 846 846 846 846 846 846 846 845 844 843 843 843 842 841 840 840 840 841 840 840 844 846 845 842 841 839 838 837 836 836 836 835 835 834 834 834 834 834 838 844 842 841 845 847 851 848 840 847 856 859 864 862 862 865 863 864 871 875 876 873 876 880 876 872 877 875 868 872 873 869 868 871 874 876 877
845 846 846 846 847 847 847 847 847 847 846 846 846 846 846 846 846 846 846 846 845 845 844 844 843 842 841 839 838 840 840 841 846 850 848 845 843 841 839 838 838 837 837 837 836 835 835 834 834 835 836 840 846 845 845 850 849 852 851 846 855 861 859 865 867 867 871 869 866 871 878 877 876 879 878 875 871 868 864 861 863 864 862 863 866 870 873 874
846 846 847 847 847 847 847 847 847 847 846 846 846 846 847 846 846 846 846 846 845 845 844 844 843 843 842 839 837 839 840 845 851 852 848 846 843 841 840 839 838 838 838 837 836 835 835 834 835 836 838 842 846 845 849 856 853 853 860 861 863 863 860 867 872 872 875 873 870 874 875 874 876 879 876 874 867 857 855 858 859 859 860 861 865 868 870 872
846 847 847 847 848 848 848 847 847 847 847 846 846 846 847 847 847 846 846 846 845 845 844 844 844 844 843 840 839 839 841 850 855 851 849 847 843 841 840 840 839 839 838 838 837 835 835 835 835 840 843 847 850 848 853 859 855 852 861 867 867 867 866 870 875 876 877 872 870 873 872 874 876 873 873 873 863 855 857 860 861 861 862 863 864 866 867 868
847 848 848 848 848 848 849 848 848 847 847 847 847 847 847 847 847 846 846 846 845 845 845 845 844 844 844 843 842 842 845 853 855 852 850 847 844 842 840 840 839 839 839 838 837 836 837 836 837 844 846 850 853 853 856 858 854 850 858 867 869 871 871 874 878 878 879 874 873 876 874 874 872 869 873 870 860 858 860 862 863 863 864 864 864 864 865 865
848 849 849 849 849 849 849 849 848 848 848 848 847 848 848 848 847 847 846 846 845 845 845 844 843 843 843 843 843 845 849 854 855 852 851 848 845 842 841 841 840 840 839 838 838 837 837 838 841 845 847 852 853 855 860 855 852 854 860 867 869 872 874 877 879 878 879 878 879 878 872 871 872 874 875 865 856 857 859 860 863 864 864 864 863 863 863 863
850 850 850 850 850 850 850 849 849 848 848 848 848 848 849 848 848 847 847 846 846 845 845 844 843 842 842 843 843 846 853 856 854 853 851 849 847 844 841 841 840 840 839 839 839 837 838 841 844 843 846 855 854 857 862 854 853 862 865 867 869 872 876 877 877 878 879 878 880 875 869 871 876 877 867 855 854 856 858 860 861 862 863 862 861 861 861 861
850 851 851 851 851 851 850 850 849 849 849 849 849 849 849 849 848 848 847 846 846 845 845 844 843 842 842 843 842 849 856 855 854 854 852 851 848 844 842 842 841 841 840 840 840 839 839 841 844 843 845 853 857 861 864 859 861 868 869 868 870 873 876 876 875 878 878 876 879 874 867 869 877 878 859 849 857 859 857 859 860 861 860 859 859 859 860 859
851 852 852 852 851 851 851 850 850 849 849 849 849 849 849 849 848 848 847 846 846 846 845 845 844 843 842 842 844 851 856 854 855 854 852 851 848 845 844 844 843 842 842 842 843 843 842 843 845 843 845 852 857 863 866 868 869 870 869 867 870 872 873 875 874 877 876 874 878 877 871 871 878 875 855 849 858 859 858 858 858 860 858 857 857 857 858 857
852 852 853 852 852 852 851 850 850 850 850 850 850 849 849 849 848 848 847 847 846 846 845 845 844 844 843 844 848 854 855 854 855 853 852 851 849 847 847 846 845 844 844 844 846 846 845 845 844 845 850 854 859 863 866 872 872 870 869 865 868 870 869 873 874 878 877 873 879 879 867 862 871 864 847 850 857 858 859 857 856 858 856 856 856 856 856 855
853 853 853 853 852 852 851 851 851 850 850 850 849 849 849 848 848 847 847 847 846 846 846 845 844 844 844 849 854 855 855 854 854 854 853 851 851 850 849 849 847 846 845 845 847 847 846 846 844 848 855 856 861 866 866 871 871 869 870 867 865 862 863 873 877 878 877 875 881 878 854 840 851 850 842 851 856 856 857 853 852 854 854 854 854 854 853 853
853 853 853 853 853 853 852 852 851 851 850 850 849 849 849 848 848 848 847 847 846 846 846 845 845 844 846 853 856 855 855 855 854 854 853 852 852 851 851 850 849 849 848 847 848 848 848 847 846 851 858 859 864 868 866 869 869 868 870 869 865 856 857 871 877 875 874 876 880 877 856 834 836 840 842 851 854 855 852 846 848 849 851 852 851 852 851 851
853 854 854 853 853 853 853 852 851 851 850 850 850 849 849 848 848 848 847 847 846 847 846 846 846 845 849 855 856 855 855 855 855 855 853 853 852 852 852 851 850 850 849 849 849 849 849 848 848 854 863 865 865 864 864 866 866 868 864 859 862 860 857 866 878 877 872 876 879 874 856 834 831 837 844 852 854 855 851 844 845 846 848 849 849 850 848 848
853 854 854 854 853 853 853 853 852 851 851 850 850 849 849 848 848 848 847 847 846 847 846 846 846 845 850 855 856 855 856 855 856 855 854 854 853 852 852 851 851 850 850 850 849 850 849 849 858 863 864 864 862 860 859 859 859 865 863 856 860 864 858 860 875 883 877 875 876 871 859 840 834 839 846 853 853 853 850 845 844 844 845 846 846 847 847 846
853 853 854 854 853 853 853 852 852 852 851 851 850 849 849 848 848 847 847 847 846 847 847 847 847 846 851 855 856 856 857 857 856 856 855 854 853 852 851 851 851 850 850 850 849 850 850 855 863 864 862 864 865 862 857 853 852 858 864 860 862 868 865 860 866 879 881 876 871 870 866 849 837 837 841 846 848 849 847 843 842 841 841 843 844 845 844 843
854 854 854 854 854 853 853 852 852 852 851 851 850 850 849 849 848 847 847 846 846 847 846 847 846 849 855 857 857 858 858 858 857 856 855 854 853 852 851 851 851 851 850 850 850 852 853 857 861 859 860 863 863 860 857 858 858 860 864 861 863 867 867 864 864 873 879 876 871 868 862 848 837 835 834 836 841 843 842 841 840 839 840 841 842 842 842 841
854 854 854 854 854 853 853 852 852 851 851 851 850 850 849 848 848 848 847 846 848 850 851 853 852 854 858 858 859 859 858 858 857 856 855 854 853 852 852 851 852 851 851 851 852 857 859 857 857 855 856 859 864 865 863 867 869 868 870 870 869 867 864 863 866 876 881 876 868 864 857 844 836 834 831 832 836 839 839 839 839 838 840 840 841 840 839 839
855 855 855 854 854 853 853 852 851 851 850 850 850 850 849 849 850 850 850 851 856 860 860 861 860 859 859 860 860 858 858 858 857 857 856 854 853 853 852 852 852 852 856 858 856 865 867 856 853 855 857 864 873 877 876 878 878 875 875 875 873 871 865 861 868 880 886 877 861 857 856 844 836 833 829 830 835 838 837 838 838 837 838 838 839 838 836 835
855 855 855 855 854 853 853 852 851 850 849 849 849 849 850 851 852 853 855 859 863 864 863 862 862 860 860 861 861 859 859 857 857 857 855 855 854 853 852 853 853 852 863 872 866 868 867 854 855 863 869 875 880 884 882 880 881 878 876 875 873 871 865 863 874 882 884 879 861 857 859 843 832 829 826 831 835 835 834 835 835 834 835 836 836 835 833 832
855 855 855 854 853 853 852 852 851 849 848 847 848 850 851 850 851 851 852 858 863 864 863 863 862 861 861 862 861 861 859 857 857 856 856 855 852 853 854 855 856 857 868 872 863 861 857 853 864 876 880 882 885 887 883 880 882 878 875 874 867 865 865 865 877 884 883 878 861 859 864 841 826 827 826 832 835 833 835 837 836 834 834 834 832 832 832 831
855 855 855 854 854 853 852 851 851 850 848 847 848 850 851 850 851 851 850 854 860 863 863 862 862 862 861 861 861 861 859 860 859 857 858 856 854 859 858 856 859 862 865 863 858 857 852 857 875 885 884 880 883 886 883 880 879 874 872 870 863 865 868 863 870 879 877 875 867 866 866 841 824 825 827 835 839 838 840 840 840 839 836 833 832 832 832 831
856 856 855 854 854 853 852 852 851 851 850 849 849 850 851 851 851 851 852 857 862 863 863 864 864 863 862 862 862 861 860 864 863 860 860 858 859 862 861 863 864 861 863 866 865 859 857 873 887 888 884 878 878 883 881 874 868 869 871 869 864 866 871 866 869 874 866 870 878 867 848 827 822 824 821 831 840 838 839 839 837 838 836 834 834 833 832 831
856 855 855 855 854 853 853 852 851 852 851 850 851 851 852 851 852 851 853 859 862 862 864 864 864 864 863 863 862 862 863 864 865 863 863 862 862 862 865 871 865 857 865 873 870 859 864 885 891 884 882 879 876 875 875 871 863 864 868 869 869 870 874 873 873 872 855 854 872 868 840 818 817 821 818 825 832 829 832 834 829 829 832 834 834 830 828 828
856 855 855 854 853 853 852 852 852 852 851 852 852 852 852 851 853 851 853 860 861 862 863 863 863 863 863 863 863 863 862 862 865 865 864 864 864 863 864 869 868 863 869 873 868 865 876 891 890 881 879 879 876 872 872 875 865 860 869 876 878 878 879 877 876 873 855 847 863 871 852 830 818 814 818 828 830 823 825 826 822 823 826 828 830 827 825 825
856 856 855 854 854 853 852 852 853 852 852 852 852 852 852 852 853 852 855 863 863 862 864 863 864 864 863 865 865 862 859 860 864 865 866 865 864 865 861 864 867 867 875 872 860 866 880 888 887 882 878 875 872 866 869 875 865 862 879 885 881 882 880 879 879 873 865 860 862 866 860 848 832 818 824 834 827 820 819 819 819 820 820 822 824 825 824 823
856 856 855 855 854 853 853 853 853 853 852 852 852 852 852 852 853 852 858 867 867 864 865 864 864 864 864 866 865 863 863 863 862 862 867 866 864 865 861 862 863 863 876 870 853 863 877 877 879 879 875 870 865 866 872 873 866 870 887 888 884 887 882 882 880 871 875 870 852 856 862 851 830 816 825 833 823 817 817 815 817 817 818 821 821 822 823 823
856 855 855 855 854 854 854 853 852 853 852 852 852 852 852 852 852 854 862 869 867 864 866 865 863 864 866 865 865 867 867 865 863 863 867 866 864 865 863 865 867 866 875 871 856 864 877 877 878 875 869 866 867 877 880 873 870 880 891 890 889 890 884 884 879 871 879 868 845 854 866 851 826 809 816 826 819 815 815 813 816 817 818 820 820 821 821 823
856 855 855 855 854 854 853 853 853 852 852 852 852 852 853 852 854 862 870 869 864 865 867 864 864 868 868 863 863 867 867 866 869 867 865 866 865 867 870 873 872 867 871 873 866 870 882 885 883 878 872 872 876 885 887 882 883 887 886 881 879 883 884 882 878 877 871 852 848 866 871 859 838 813 806 815 815 814 815 814 814 816 817 818 819 821 822 824
855 855 855 854 854 854 853 854 853 852 853 852 852 853 852 854 860 870 874 868 864 866 865 865 870 872 871 868 864 866 867 867 871 868 862 866 865 863 867 867 865 864 861 861 865 873 881 879 877 881 882 881 879 881 887 889 889 884 874 867 862 864 872 871 870 875 856 837 856 878 876 868 850 820 807 811 816 818 819 818 817 818 819 819 821 822 824 825
855 855 855 854 855 854 853 854 853 853 853 852 853 852 854 863 866 867 869 865 864 866 867 870 874 875 877 875 870 872 873 869 871 872 869 871 867 862 865 862 859 859 853 852 858 860 866 872 877 882 885 884 876 869 876 882 882 875 865 862 855 848 853 853 851 853 842 842 869 882 876 867 845 820 812 812 813 816 821 823 824 825 825 824 825 825 825 826
855 855 855 855 855 854 854 854 853 854 852 853 854 852 859 868 870 872 870 863 864 872 875 877 878 880 880 871 870 880 879 871 872 875 877 877 868 864 873 877 871 862 855 859 859 851 854 869 879 877 877 884 878 862 859 865 869 867 861 860 855 851 857 854 846 844 843 850 873 885 879 861 834 818 816 815 813 816 824 829 831 832 832 830 829 828 827 826
856 855 855 855 855 854 854 854 854 854 854 854 853 856 865 869 871 878 872 864 872 879 880 882 880 879 878 871 876 883 875 870 876 876 873 872 863 859 867 877 879 869 862 862 861 858 854 855 868 874 874 881 880 871 867 865 864 869 871 867 858 856 860 855 847 845 847 854 869 883 873 844 823 818 817 819 820 823 829 832 833 833 832 832 831 828 826 823
856 856 856 856 855 855 855 855 855 854 854 854 855 863 870 868 868 873 869 868 876 877 879 886 881 870 870 874 883 886 876 872 876 874 870 867 860 858 861 868 877 874 865 858 860 868 858 850 871 885 883 883 880 880 885 872 864 875 880 870 860 859 857 858 865 870 876 875 868 868 853 825 816 816 816 820 822 825 829 828 828 827 826 828 826 823 822 820
856 856 856 856 856 856 855 855 855 855 854 855 860 867 868 866 868 872 872 875 877 875 873 877 875 865 863 869 876 884 883 878 876 870 868 869 865 865 867 872 881 879 870 862 860 865 856 854 878 888 882 887 885 883 888 875 864 872 873 864 868 876 865 860 874 890 897 882 855 848 838 818 816 816 812 816 817 818 823 823 824 823 821 823 822 821 821 819
857 856 856 857 857 856 856 856 855 855 854 856 863 869 870 871 876 878 880 882 882 881 873 867 869 868 866 868 869 877 881 878 877 870 864 866 865 866 870 877 887 886 880 875 865 866 863 857 875 885 876 884 892 887 886 885 876 868 865 867 875 882 874 867 872 874 875 863 844 844 839 823 822 820 811 814 817 819 822 823 823 821 820 820 819 820 819 818
857 857 857 857 857 857 857 856 856 855 855 860 865 871 875 877 883 887 887 887 884 881 874 867 869 872 873 872 868 876 880 871 870 871 864 862 863 868 871 875 886 890 889 885 869 869 872 857 867 888 881 880 891 885 874 882 887 875 871 877 876 869 864 868 872 863 858 856 844 845 848 835 829 825 817 818 822 823 825 825 824 822 821 820 819 818 818 817
857 857 858 858 857 857 856 856 857 855 857 864 864 869 877 880 886 895 894 890 885 878 874 872 874 875 877 877 872 877 883 875 871 872 866 862 862 869 874 874 881 888 891 888 873 870 874 861 859 881 887 881 881 874 861 866 883 885 880 880 880 875 867 868 873 868 862 857 847 849 851 833 820 823 823 823 825 827 829 828 827 825 823 821 820 819 818 817
858 858 858 858 857 857 857 856 857 856 860 870 870 872 882 882 886 898 900 894 887 880 877 876 878 876 875 879 880 880 884 883 879 874 869 868 865 866 878 880 878 884 889 888 881 874 873 866 857 868 883 876 863 862 857 854 867 876 874 876 879 883 883 878 877 877 869 856 850 857 850 824 816 825 824 823 828 830 830 828 826 824 822 821 821 820 818 817
858 859 858 859 857 857 858 856 864 870 868 872 877 878 884 885 886 894 900 899 892 887 884 881 879 878 876 878 881 882 883 882 883 878 870 871 865 862 879 889 884 884 884 880 879 876 871 867 861 860 863 855 851 869 876 868 868 866 862 865 867 873 879 871 869 881 886 872 862 865 855 828 820 827 825 826 830 829 827 826 824 823 822 821 820 820 819 817
859 860 860 859 857 858 858 861 879 887 874 871 880 883 886 889 888 891 896 897 893 889 888 886 883 882 880 878 880 885 882 878 881 880 871 871 867 865 883 897 894 890 883 876 878 883 879 872 868 860 851 851 865 883 887 881 879 874 870 870 868 870 870 860 858 872 885 886 882 883 874 843 822 827 830 827 827 825 825 825 823 822 822 822 821 820 818 816
859 860 860 860 859 859 859 864 878 882 874 881 890 890 891 892 888 889 893 891 890 889 887 884 884 883 882 883 883 885 882 876 874 873 871 872 873 879 892 900 897 890 884 878 878 885 883 872 868 859 846 855 876 885 887 888 882 874 873 878 877 876 876 872 874 878 876 875 874 875 868 841 820 825 828 823 823 825 825 826 825 824 822 821 821 819 816 814
862 862 861 860 859 859 860 864 869 869 873 884 886 885 891 893 889 888 888 886 887 887 883 882 884 883 885 890 887 883 881 874 868 870 875 875 877 889 899 899 896 888 883 881 880 881 875 864 865 860 846 848 858 861 869 877 875 867 869 881 886 887 891 891 891 890 879 868 864 861 850 829 818 822 822 820 825 826 826 828 828 827 824 821 820 817 815 813
863 863 863 862 860 860 864 870 869 866 872 878 876 879 884 887 891 891 887 887 890 888 882 883 888 887 889 892 889 886 884 877 871 875 881 879 880 891 898 897 897 890 886 892 890 883 875 868 866 861 853 851 847 847 853 859 864 868 872 884 891 892 893 886 881 883 878 871 871 865 847 828 821 823 823 825 828 829 830 831 830 829 827 824 821 818 815 812
861 861 863 863 862 865 872 879 874 867 872 873 872 880 881 877 886 894 891 888 890 891 888 887 890 889 889 889 884 882 884 882 879 880 881 878 877 888 898 897 895 893 892 896 894 886 882 880 875 864 857 854 849 855 866 867 865 866 868 876 886 894 897 888 881 878 872 873 872 860 849 839 829 826 827 830 833 835 835 834 832 830 828 825 823 818 815 811
861 863 866 865 864 866 871 878 875 870 874 873 870 878 879 875 881 888 890 890 890 892 890 889 890 885 882 884 879 877 882 885 885 884 881 879 879 888 899 899 895 895 895 894 893 888 881 878 880 876 868 864 862 865 873 876 873 870 872 874 879 892 898 892 883 872 869 875 866 848 847 846 834 829 833 837 840 839 837 835 833 831 828 825 822 817 813 809
863 867 873 872 868 867 868 873 877 876 876 877 877 880 878 875 875 876 882 890 892 892 887 883 886 883 880 882 878 875 880 880 880 880 879 882 885 884 888 895 897 895 894 892 891 890 880 875 885 890 878 871 874 873 873 879 880 878 878 875 876 887 894 889 881 871 872 877 862 843 845 847 839 837 840 843 844 841 838 836 834 831 828 823 819 814 811 808
868 869 876 876 872 874 879 881 882 877 875 877 879 880 877 873 872 875 883 887 885 890 888 875 874 880 883 884 881 877 877 872 870 874 877 882 887 881 877 884 893 895 893 888 891 894 883 874 889 900 884 872 877 880 879 882 881 880 880 874 873 880 884 883 879 872 873 873 861 851 852 851 846 844 844 845 845 842 841 838 834 832 827 821 816 813 810 809
865 864 871 874 875 882 888 886 881 875 878 881 876 876 881 875 871 877 884 881 873 881 888 877 871 879 886 887 884 877 874 872 870 875 881 882 884 883 879 878 886 894 893 890 894 896 886 879 893 899 880 869 880 887 883 879 877 876 875 872 873 874 875 880 881 875 873 871 863 861 860 853 848 847 847 847 845 844 843 838 834 831 825 820 815 813 811 809
863 863 866 865 871 883 886 884 883 875 874 877 873 875 879 875 875 878 879 881 878 877 882 879 874 882 889 890 887 880 878 882 881 883 888 886 884 886 885 883 887 889 890 895 897 895 889 887 893 892 874 864 876 882 876 877 881 879 874 873 874 873 872 875 873 868 867 867 863 861 859 853 848 847 847 845 844 845 844 841 836 830 823 820 817 815 813 809
864 864 864 862 868 882 885 882 882 876 871 874 876 877 876 877 883 882 873 878 886 884 884 884 881 883 885 884 886 887 888 892 892 892 894 892 891 892 891 892 893 888 889 896 900 902 899 888 885 890 877 861 866 872 871 875 877 872 872 874 873 872 871 869 867 863 862 865 865 862 858 855 853 852 848 843 840 842 843 841 837 829 824 822 820 818 814 809
Wind_Speed
11 10 10 10 9 9 9 8 7 6 5 4 3 3 2 2 2 2 4 5 6 5 4 6 6 6 8 7 8 7 8 13 19 25 22 16 22 22 18 12 10 7 2 2 1 2 1 3 4 2 2 4 4 2 1 3 3 2 1 1 1 1 2 3 6 4 1 3 8 9 10 10 6 5 3 2 5 6 5 7 8 8 11 12 8 5 5 3
10 10 9 9 9 8 8 6 6 5 5 4 3 3 2 2 1 2 3 5 8 8 6 7 6 7 9 8 8 6 5 9 17 22 19 21 25 21 14 9 7 3 1 2 1 2 2 2 3 2 2 2 3 2 1 3 4 1 0 1 1 1 1 1 3 4 1 2 8 9 8 8 4 5 6 4 6 7 9 10 9 11 14 16 15 12 8 5
8 9 9 8 8 7 6 5 5 5 5 4 3 3 2 1 2 2 2 4 7 10 9 7 8 9 10 7 8 5 3 7 13 14 20 25 25 20 12 7 3 1 2 2 3 3 3 4 3 2 2 3 3 2 1 4 3 1 1 1 1 2 2 1 1 3 1 1 8 8 5 6 3 4 5 5 5 7 11 10 9 12 15 16 16 14 10 10
6 8 8 8 7 6 6 6 5 5 5 4 4 3 2 1 2 1 1 3 4 7 10 10 12 13 15 12 6 6 3 2 7 12 21 26 25 19 11 5 3 3 3 4 4 5 6 7 6 4 2 3 2 1 3 4 2 1 1 1 4 2 2 2 0 2 1 1 5 7 5 5 4 3 6 6 6 8 11 11 10 13 14 13 12 14 13 13
5 7 8 7 7 7 7 6 6 5 5 5 4 3 1 1 2 1 1 2 3 4 6 7 11 12 16 15 2 7 4 2 5 15 21 24 24 16 9 5 3 4 3 2 2 3 3 4 4 4 3 3 2 1 2 4 2 2 2 2 4 1 1 3 1 2 1 1 4 7 5 4 4 5 9 9 9 7 2 4 9 12 11 7 7 11 13 15
5 7 8 9 9 9 7 6 6 5 5 5 5 4 2 2 2 1 1 3 4 6 7 8 11 11 12 14 6 6 3 1 7 16 20 22 21 13 7 3 2 2 1 1 2 3 3 3 2 2 3 2 3 3 2 2 2 1 2 2 2 1 1 3 2 2 1 2 5 5 3 3 4 6 8 12 16 7 4 3 2 5 7 5 3 9 13 15
8 9 10 10 10 8 6 5 5 5 4 5 5 4 4 4 3 3 2 3 4 6 8 9 12 11 5 8 10 8 5 4 9 15 18 20 18 10 4 3 1 2 1 1 3 3 3 4 5 3 3 2 2 3 2 2 0 1 3 3 1 2 2 2 2 1 1 1 1 2 1 3 6 5 1 10 18 11 2 3 1 3 3 4 5 10 13 15
11 11 11 10 8 7 5 5 5 4 4 5 6 7 7 8 7 7 6 5 5 4 6 8 10 9 4 1 3 7 6 3 10 15 16 18 16 9 3 2 2 0 2 5 4 2 1 4 5 2 2 3 1 3 2 1 3 4 3 3 2 3 3 3 2 1 1 1 1 1 4 4 4 2 4 13 16 13 9 4 3 2 2 5 8 11 13 14
11 10 8 7 6 5 5 6 5 4 4 6 7 8 7 8 8 9 10 9 8 8 9 12 9 4 3 2 3 2 3 3 10 13 14 17 17 13 9 7 5 3 7 9 5 1 0 1 2 3 3 4 1 2 3 3 3 4 4 3 2 3 3 2 1 1 1 0 1 4 7 3 1 3 8 15 12 7 8 7 6 5 6 8 9 11 13 14
9 7 6 5 5 4 5 6 5 4 5 5 6 5 5 6 7 8 10 10 8 8 9 11 12 4 4 3 3 2 1 3 8 10 11 16 17 17 16 13 9 9 11 12 11 7 3 3 4 4 6 5 3 3 4 3 2 3 5 5 4 2 2 2 0 1 1 1 1 5 9 4 2 2 8 6 1 0 4 7 7 7 11 11 9 11 12 15
6 5 4 3 4 4 5 6 5 4 4 3 2 3 4 5 6 6 8 10 9 9 9 8 9 8 5 4 3 3 2 2 6 10 9 14 19 21 20 15 11 12 13 13 14 11 8 8 5 3 3 2 3 5 4 2 1 3 4 4 5 2 1 1 1 1 2 1 1 5 9 6 3 3 11 4 3 2 4 6 7 8 10 11 10 10 10 13
4 3 3 2 3 4 5 6 4 3 3 2 0 2 4 6 7 5 5 8 10 9 10 9 5 4 9 10 5 3 4 3 3 10 10 11 17 20 19 17 13 11 11 11 8 7 8 6 5 4 2 2 2 3 4 1 0 2 1 0 2 2 2 2 1 1 2 1 1 5 8 6 7 10 12 3 4 2 4 7 8 9 9 9 9 8 9 12
4 2 2 1 2 4 4 4 4 3 1 1 1 2 4 6 6 6 5 6 8 7 8 11 6 2 4 6 4 2 4 5 3 6 10 9 11 15 16 17 17 16 17 17 11 8 8 6 10 10 3 2 2 1 4 3 1 1 1 2 1 4 2 2 1 1 3 1 1 4 6 3 9 13 9 4 3 3 4 8 7 7 7 7 8 7 9 12
5 2 1 1 2 3 3 3 4 3 2 1 2 3 4 5 6 6 5 5 5 5 6 9 7 5 4 3 1 2 2 5 5 5 9 10 7 9 12 14 16 17 18 19 17 14 12 12 16 12 3 4 4 3 4 3 1 1 0 0 1 3 0 3 2 2 3 0 1 4 6 5 3 8 6 3 3 4 6 9 7 6 6 6 7 7 9 10
5 3 1 1 2 2 2 2 3 3 3 3 2 2 3 3 5 5 4 5 4 4 5 5 5 4 5 3 1 2 2 3 7 8 10 11 7 4 6 9 11 12 12 13 13 13 12 9 9 7 3 2 3 4 2 1 1 1 2 1 0 2 1 3 3 2 2 1 1 3 6 9 5 1 4 3 3 5 7 9 7 7 7 7 6 7 8 9
4 2 1 1 1 1 2 1 1 2 3 3 2 2 2 3 5 4 3 4 3 3 3 4 6 4 4 3 2 2 4 4 8 9 7 9 9 5 3 5 6 7 7 9 8 9 12 10 5 2 2 1 2 1 1 2 1 1 2 4 2 3 4 1 3 1 2 0 3 5 6 10 7 0 4 4 4 5 7 10 10 9 9 8 7 6 7 9
4 3 2 1 1 1 2 1 1 1 2 3 3 3 3 4 6 5 3 3 2 2 3 3 4 4 3 2 3 1 4 5 8 8 6 7 8 8 6 4 3 4 3 6 7 5 8 7 1 1 2 1 1 1 3 2 2 1 0 3 2 3 5 4 1 3 0 2 4 6 8 15 14 9 6 5 6 6 9 13 12 12 10 8 8 7 9 10
6 5 4 2 1 2 2 2 1 0 1 2 2 2 2 3 5 7 5 4 5 3 1 4 2 3 2 2 1 3 4 5 8 8 7 6 5 7 8 6 2 3 0 1 6 5 4 2 1 1 2 0 1 1 3 3 3 3 3 4 3 3 4 5 3 2 1 3 6 8 11 18 19 16 14 8 6 8 12 13 13 12 11 9 8 8 10 10
7 6 3 2 2 2 2 3 2 2 1 1 2 4 4 3 3 5 11 7 1 2 0 3 2 1 1 1 2 4 3 4 6 7 10 8 5 4 7 7 3 2 1 2 3 4 3 1 1 1 1 1 1 0 2 2 2 2 3 3 5 6 5 6 4 2 3 6 9 10 12 17 19 16 16 11 6 9 12 11 10 10 9 8 8 8 9 10
7 5 3 2 2 2 2 3 3 3 3 4 6 6 3 1 1 2 10 11 4 1 0 0 1 1 1 2 5 6 2 2 4 8 13 10 5 2 3 5 2 2 2 1 2 3 2 2 2 2 1 2 3 2 2 3 2 0 1 3 4 6 6 6 2 3 1 5 8 8 12 19 20 17 15 10 5 7 10 9 9 8 7 7 7 9 9 10
6 4 4 3 2 2 1 3 5 6 6 7 6 3 1 1 1 0 3 4 1 1 1 1 0 1 1 2 7 6 2 1 2 7 14 11 4 2 2 3 1 1 2 1 2 0 2 4 1 2 3 5 5 4 4 3 2 0 2 4 4 4 6 4 1 1 1 2 6 5 12 20 19 14 11 6 4 6 6 6 7 7 6 6 6 9 9 8
5 5 5 4 4 4 3 3 6 6 4 2 3 4 2 2 2 3 2 2 1 2 2 1 0 1 1 2 6 6 1 1 1 5 14 12 4 2 2 2 1 1 2 1 2 1 2 2 2 5 5 7 6 4 3 2 2 1 2 3 4 2 4 4 2 2 2 2 6 6 10 19 18 13 8 3 3 4 3 4 6 5 6 6 6 7 8 8
6 5 5 5 4 4 5 5 6 7 7 8 8 6 4 4 5 4 1 2 2 2 2 2 2 2 2 2 5 6 1 0 1 4 14 11 2 2 2 1 2 0 1 1 1 3 3 0 4 5 5 6 5 3 3 2 2 3 2 4 4 2 3 3 1 1 4 5 7 8 9 13 12 6 1 0 2 4 4 5 6 6 7 8 7 6 7 9
5 6 6 5 4 4 5 5 6 9 11 11 10 7 5 4 4 3 2 1 1 1 1 2 1 1 2 2 5 5 1 1 1 3 13 9 1 1 1 2 1 1 0 1 1 4 2 3 4 4 3 3 3 3 4 3 3 4 5 4 4 3 3 4 4 8 9 4 3 9 8 6 2 1 2 2 2 4 3 5 7 7 9 9 8 8 9 10
6 6 6 5 4 3 3 4 5 8 9 8 7 5 3 3 2 2 2 0 0 1 1 0 1 1 1 2 6 3 2 1 0 3 8 7 1 1 1 2 1 1 2 2 1 4 1 2 3 5 3 2 3 3 4 3 4 2 5 4 2 2 3 6 8 9 7 2 2 6 6 1 2 3 3 1 1 3 2 3 6 6 7 6 7 9 9 9
6 6 6 5 4 4 2 1 2 3 2 3 3 3 2 2 1 1 1 0 0 0 1 0 0 1 1 3 5 1 3 1 1 2 5 5 2 0 1 1 1 1 2 2 1 2 1 2 2 3 3 3 3 4 3 4 4 3 1 2 2 1 4 6 7 6 5 4 2 2 5 3 2 5 3 2 3 4 2 4 5 4 5 5 6 7 6 6
6 6 6 6 5 5 2 1 1 0 1 0 2 1 1 1 2 1 0 1 0 0 1 0 1 2 1 3 4 1 2 1 1 2 4 4 2 0 1 1 1 0 2 1 2 1 4 4 3 2 3 4 3 3 4 7 4 2 2 2 2 2 6 4 4 3 4 6 3 1 2 5 5 3 1 3 4 4 3 5 5 5 5 4 5 5 6 6
6 6 6 6 6 6 4 2 0 1 1 2 3 1 1 2 2 1 1 0 0 1 1 1 0 2 2 1 2 1 2 3 1 1 3 4 3 1 2 2 2 1 2 3 5 0 3 4 6 5 4 4 3 1 4 8 3 1 4 1 1 2 3 1 3 4 2 4 3 3 1 4 6 1 3 1 3 2 2 4 5 4 3 3 4 5 6 5
5 5 6 7 5 5 5 5 2 1 1 1 4 2 4 4 2 0 1 1 0 1 1 1 1 1 2 1 1 2 1 2 2 3 3 2 3 2 1 0 2 2 2 3 4 1 1 1 3 4 4 2 1 2 2 6 1 3 5 2 2 2 1 1 2 2 1 4 2 2 1 4 6 3 2 1 1 0 1 2 3 3 3 3 4 5 5 5
5 5 5 6 4 2 4 5 2 1 1 2 3 3 5 4 1 1 1 1 0 1 0 1 1 2 4 2 1 2 1 1 2 3 2 1 2 3 1 0 1 2 1 2 3 0 2 1 1 2 2 1 3 2 0 1 2 3 4 2 3 3 2 1 1 1 2 3 2 3 2 3 5 4 0 2 1 2 2 3 3 3 4 3 3 3 5 5
5 5 5 6 4 3 4 2 1 1 1 2 1 4 4 2 1 2 1 1 1 1 0 1 2 2 4 2 1 3 2 2 3 3 1 1 1 1 2 2 1 2 3 3 2 1 2 2 1 1 1 1 2 2 1 1 1 2 3 3 4 2 2 3 2 2 3 2 3 3 2 4 4 3 1 0 1 2 2 5 6 7 9 8 7 6 6 6
6 6 6 6 4 3 3 1 1 1 1 1 2 3 1 0 0 1 2 2 1 1 1 1 1 2 3 1 1 3 2 1 3 3 2 2 2 1 1 1 1 3 3 0 1 1 2 2 1 2 1 0 2 2 2 2 3 3 3 3 5 4 2 2 2 2 3 1 3 2 2 4 7 8 8 8 7 4 3 2 5 8 10 10 10 10 8 7
6 6 6 6 4 3 3 1 1 2 2 1 2 2 2 1 1 1 2 2 1 1 1 0 1 1 2 2 1 1 2 1 2 2 0 1 2 1 0 1 1 3 3 1 2 3 1 2 2 2 2 1 2 3 1 2 2 3 2 2 4 4 4 5 3 3 3 1 3 2 2 4 6 6 6 8 9 4 4 3 4 5 7 9 9 9 8 7
6 6 6 5 4 3 3 1 2 2 2 2 1 1 2 1 2 1 1 2 1 1 1 0 2 1 1 1 2 2 2 1 2 2 1 1 2 2 1 1 1 1 1 2 2 2 3 1 1 1 1 1 2 2 3 1 1 1 1 1 2 2 4 6 4 4 5 2 1 2 1 4 3 2 1 3 7 5 4 1 2 3 4 5 7 7 8 8
5 5 4 4 4 3 2 1 1 2 2 1 2 2 1 2 2 1 1 1 0 1 0 1 1 2 0 1 1 1 1 0 2 2 2 1 2 2 0 1 1 0 1 2 0 0 3 2 2 1 1 1 1 0 1 1 1 1 1 1 2 0 3 3 2 2 3 3 2 3 3 5 3 4 4 2 2 2 2 1 3 6 4 3 5 7 8 9
3 3 3 4 4 3 2 1 1 1 1 1 2 1 1 2 1 1 1 1 1 1 2 1 0 1 1 0 1 2 0 1 3 3 1 1 2 1 1 1 1 0 0 1 1 0 3 1 2 0 1 1 1 0 1 3 1 2 2 1 1 2 3 3 1 1 1 3 3 2 5 6 3 4 2 2 5 6 6 7 9 11 10 7 8 9 10 11
2 2 3 5 5 3 2 1 1 1 1 2 1 1 2 0 1 0 0 1 0 0 2 1 1 1 2 1 1 1 1 1 1 2 1 1 1 1 1 1 1 0 1 2 1 1 2 2 2 1 1 2 1 1 0 2 2 1 1 1 2 0 1 1 2 1 3 5 3 3 6 7 4 2 1 7 10 10 11 13 14 14 15 14 12 11 12 13
0 2 3 5 5 3 2 1 0 1 2 2 0 2 1 0 1 1 0 0 1 0 0 1 1 1 1 1 1 1 2 3 1 1 2 1 1 1 1 1 1 1 0 1 1 1 2 4 0 1 1 2 1 3 1 2 2 2 0 1 0 2 2 1 2 3 4 5 4 3 4 6 4 2 3 9 10 10 12 14 15 17 18 16 14 15 15 14
1 1 1 4 5 3 1 1 2 2 2 1 1 1 0 0 0 1 1 1 1 1 1 1 1 1 1 1 1 1 1 2 2 1 1 1 0 1 1 0 1 2 1 1 2 0 1 3 1 1 1 0 1 4 3 3 3 1 1 1 1 2 3 1 1 2 3 6 6 2 1 4 3 3 4 9 9 10 12 12 12 15 17 16 15 15 15 15
0 0 1 3 4 2 2 3 3 2 2 0 1 0 0 1 1 1 1 1 0 0 1 1 1 1 1 1 1 1 0 1 1 1 1 1 1 1 2 0 1 2 1 1 2 1 2 2 3 2 2 2 2 2 1 0 2 2 3 3 1 1 1 2 2 1 2 5 6 4 5 4 0 3 2 6 7 8 10 11 12 14 17 17 16 15 15 16
1 0 2 4 3 1 3 4 4 2 1 0 1 1 0 0 1 1 1 1 1 1 0 0 1 1 1 0 1 1 1 2 2 2 2 2 2 1 2 1 1 1 1 1 2 2 1 2 3 2 3 4 1 2 2 2 1 1 3 2 2 2 1 3 4 1 0 4 4 4 7 6 0 2 1 3 5 7 11 14 15 17 19 19 17 17 17 17
1 0 2 4 3 1 2 3 2 1 0 0 0 0 0 1 1 1 1 1 1 1 1 0 1 1 1 1 1 1 2 2 2 2 2 3 2 1 2 1 2 1 1 1 1 0 1 1 3 6 6 3 2 4 2 2 2 1 1 0 1 1 2 5 5 1 1 2 1 1 5 4 0 2 2 2 6 10 13 17 18 19 19 19 19 19 19 18
1 1 2 5 3 0 2 1 0 0 0 0 1 0 0 1 1 1 1 2 1 0 0 1 1 1 1 1 1 2 2 3 3 3 2 2 1 1 2 1 2 2 1 1 0 1 1 1 3 6 5 1 4 4 2 2 1 1 0 1 2 1 0 2 3 2 2 3 2 4 5 3 2 3 2 7 11 13 15 18 20 19 18 19 20 19 19 20
1 1 1 6 5 0 1 0 0 0 0 0 0 1 0 1 1 1 1 2 1 1 1 1 1 0 1 1 1 2 2 2 3 2 1 1 0 3 3 1 1 1 1 1 1 1 2 2 1 5 6 1 2 2 1 1 1 1 1 1 1 2 3 1 1 1 2 5 5 8 8 3 2 5 10 14 16 17 17 18 19 19 18 19 20 19 20 21
1 0 1 5 7 4 1 1 1 1 0 1 1 0 0 0 1 1 1 1 0 1 0 0 0 0 1 1 1 2 3 3 2 0 1 1 1 2 3 1 1 1 1 2 2 2 2 1 1 4 6 4 4 3 2 2 1 1 1 1 2 2 2 1 2 2 3 2 3 6 10 9 11 14 16 16 17 19 20 20 19 18 18 19 19 19 20 20
1 1 1 3 5 6 2 0 1 1 1 1 1 0 0 1 1 0 1 1 1 1 0 0 1 1 1 1 3 3 3 3 2 1 1 2 2 1 2 1 1 1 1 1 2 1 1 1 3 6 7 7 7 4 2 2 5 6 5 2 2 3 2 1 2 3 3 2 3 8 12 15 18 18 16 16 18 19 20 21 21 19 20 20 20 20 22 21
1 1 1 1 1 2 2 1 1 1 1 1 1 1 1 1 1 1 0 1 0 0 1 1 2 2 2 1 2 2 1 2 2 2 2 3 1 0 0 1 0 3 3 2 2 1 1 2 2 4 8 8 8 7 2 1 6 8 8 6 1 3 3 4 5 5 3 3 6 8 11 15 18 19 18 18 19 20 20 21 21 20 20 21 21 23 24 22
1 1 1 0 0 1 1 1 1 1 1 1 0 1 0 1 1 1 1 0 0 1 2 1 2 4 3 2 1 1 1 1 3 2 2 1 1 1 0 1 0 4 4 1 1 1 2 3 1 0 6 8 7 9 5 1 4 5 5 7 3 2 5 6 7 9 5 5 10 14 16 17 18 18 18 18 19 20 20 20 20 21 22 23 24 25 24 20
1 1 1 2 1 1 1 1 1 2 2 1 0 1 1 1 2 1 1 1 1 1 2 2 2 3 4 3 2 2 2 2 3 2 1 1 1 1 1 0 1 2 2 1 1 1 2 2 1 1 6 7 4 4 2 2 3 2 3 4 3 2 6 7 8 10 8 10 15 18 20 18 14 14 16 18 18 18 18 19 21 22 24 24 24 24 21 20
1 1 1 1 2 2 1 1 1 1 1 1 1 1 1 3 3 1 1 2 2 1 3 3 2 1 2 3 4 6 4 2 4 3 1 1 1 1 1 1 1 1 1 0 1 1 1 1 3 1 5 4 2 2 1 2 4 4 4 1 3 2 4 4 5 7 7 10 13 15 16 13 8 12 17 17 16 16 18 22 23 23 24 24 23 22 22 24
1 2 2 2 2 1 1 1 1 0 1 0 1 1 1 2 2 1 1 2 1 1 4 3 0 2 1 2 6 7 4 3 5 4 1 1 2 1 0 1 0 1 1 1 1 1 1 1 2 2 5 3 3 0 2 2 3 4 3 5 7 4 3 3 5 8 8 10 12 12 9 8 10 15 19 18 17 18 20 21 22 23 23 22 22 23 25 26
3 2 2 2 1 1 1 1 0 0 0 0 0 1 1 0 0 1 1 0 1 1 1 1 0 0 1 2 4 4 4 4 3 3 2 1 1 2 1 2 3 1 1 2 0 1 0 2 0 1 4 3 0 5 4 3 4 3 3 6 9 6 6 7 8 10 9 7 8 9 8 11 15 18 20 21 22 22 20 20 21 23 20 20 23 25 26 26
Wind_Direction
126 130 127 125 120 111 103 91 77 70 70 68 57 50 41 43 82 106 67 51 36 24 15 359 347 344 346 345 355 2 19 43 52 45 42 8 344 343 338 333 332 334 338 331 258 236 353 44 51 78 75 47 16 352 63 30 7 273 233 282 287 170 179 172 173 169 74 136 160 171 187 202 188 168 176 166 222 231 230 233 228 230 241 242 242 241 268 290
125 131 132 131 124 115 104 82 65 56 56 56 40 27 16 21 72 93 58 37 27 14 354 343 339 327 322 311 315 336 2 29 45 39 19 356 352 351 348 348 332 338 60 5 76 226 276 23 55 69 77 61 1 358 118 354 355 340 141 284 304 86 82 24 144 143 65 123 154 169 191 207 199 154 165 211 216 205 235 237 222 238 243 238 236 234 241 222
122 129 134 135 129 118 99 75 63 55 49 48 41 24 8 17 64 83 57 36 33 31 34 38 33 15 354 320 280 287 336 29 42 18 355 355 356 356 356 357 352 67 99 67 97 113 81 84 94 75 72 68 19 4 43 5 350 359 283 271 77 71 75 56 149 121 19 65 150 160 176 207 209 135 164 224 233 202 229 232 211 229 238 234 223 211 208 201
121 129 133 135 130 115 99 84 68 49 31 35 42 30 8 29 66 77 46 25 25 33 42 44 34 24 10 350 266 226 240 48 38 346 348 356 353 355 1 6 51 94 105 110 97 87 85 82 71 51 69 80 41 4 28 9 339 75 320 349 87 121 106 103 254 86 27 347 149 143 143 208 199 160 195 218 240 232 231 230 224 230 236 233 209 191 193 200
125 131 132 130 126 114 105 91 66 42 21 29 45 41 33 61 69 67 287 335 328 334 357 8 9 11 11 3 264 184 202 190 15 347 352 356 349 352 5 26 97 100 91 121 52 34 53 71 71 51 58 64 18 26 44 9 336 81 38 21 84 160 82 86 48 86 107 85 135 147 159 193 151 191 219 216 235 251 242 222 233 241 250 247 197 188 192 201
120 126 128 126 121 112 100 82 61 39 23 44 57 56 63 68 75 42 301 307 312 311 312 318 330 342 14 29 70 150 167 108 356 349 356 356 349 352 6 24 108 60 7 279 337 12 38 48 91 55 61 58 16 49 45 354 280 108 91 111 85 3 25 71 78 100 149 167 156 161 171 151 167 224 221 221 237 249 59 74 258 267 271 275 203 197 197 205
111 117 122 121 115 104 87 65 48 32 46 74 65 62 82 88 91 65 27 337 319 311 314 305 307 318 356 53 72 85 87 57 354 350 2 1 355 359 13 14 356 336 298 51 38 65 58 50 88 84 83 89 44 70 29 343 309 19 112 131 56 44 36 44 85 120 341 275 150 117 190 192 221 248 218 232 242 243 203 101 60 325 294 254 221 209 208 212
105 110 114 114 106 95 74 46 34 34 81 91 70 77 89 87 88 76 59 40 25 7 1 338 308 298 292 219 101 68 68 19 346 356 8 9 14 25 39 49 45 113 92 71 55 98 86 53 98 153 84 72 102 87 7 334 65 45 99 129 82 75 57 61 93 100 40 341 78 191 236 230 235 298 292 253 251 244 228 189 203 263 259 229 224 219 215 219
102 103 104 102 93 83 55 37 38 58 105 101 84 89 84 72 77 71 59 58 58 48 32 15 358 294 236 176 182 73 49 327 341 359 13 16 29 48 60 62 61 94 74 57 54 73 187 101 140 192 112 93 107 65 338 323 50 46 88 110 101 79 54 83 122 89 38 317 156 249 258 246 190 314 272 255 263 259 228 224 227 233 241 233 226 226 221 223
95 96 95 89 78 63 40 40 52 79 115 113 94 92 71 49 55 60 54 53 44 22 7 8 20 9 211 176 170 122 47 336 351 2 16 19 32 50 54 55 61 81 75 57 54 40 33 135 136 131 112 98 67 36 337 343 53 72 95 95 80 74 63 61 38 73 324 275 164 274 273 259 108 292 264 243 267 306 213 227 225 226 240 238 229 229 227 229
87 93 94 79 66 50 34 40 53 86 116 128 100 71 48 27 31 44 42 32 18 12 9 7 28 47 92 102 109 103 45 352 12 15 16 18 33 46 45 47 57 76 79 64 58 58 78 106 120 132 119 106 85 64 39 44 105 83 102 115 81 58 130 112 288 37 307 262 127 282 273 257 125 220 251 238 110 163 229 237 223 226 240 241 236 232 231 236
88 92 95 82 62 44 35 40 47 77 120 179 223 33 19 6 16 28 21 15 13 23 23 11 14 68 77 66 60 82 37 23 36 22 19 21 40 50 47 49 55 71 90 83 66 71 85 99 100 76 46 174 148 79 89 114 87 80 65 193 107 234 210 177 175 47 275 287 22 282 275 238 185 221 243 204 116 164 240 249 233 231 240 242 238 236 236 239
100 103 96 91 57 40 38 39 46 64 102 230 281 331 349 358 9 16 8 3 12 23 16 16 30 157 92 61 40 59 42 37 31 13 24 33 51 58 55 56 62 70 84 86 77 69 79 93 92 83 50 95 107 92 133 117 28 139 9 340 266 250 210 150 110 125 227 281 338 282 299 247 190 219 230 129 139 194 241 250 239 232 237 241 237 238 242 241
101 94 60 76 59 42 36 40 49 50 37 343 313 322 344 1 8 9 10 10 16 22 14 26 60 98 85 88 34 33 41 30 23 7 22 37 63 70 62 62 66 66 70 76 77 74 83 93 92 94 53 40 98 151 135 105 358 240 306 302 268 303 7 130 136 199 211 133 315 277 288 283 197 207 200 125 180 217 256 256 244 236 234 240 239 241 247 244
97 80 11 35 62 38 13 33 52 47 45 23 338 346 13 16 9 8 18 25 27 32 32 37 57 99 89 87 175 25 31 20 22 19 20 33 55 76 64 64 65 60 58 64 71 68 70 81 79 83 66 27 152 150 109 118 98 352 305 262 133 318 296 131 130 239 262 112 254 269 278 286 305 184 149 117 189 212 254 261 254 247 240 244 245 246 254 255
103 101 39 59 73 14 330 327 88 65 58 42 39 55 33 11 357 352 360 19 37 34 33 42 46 95 118 84 129 52 33 23 11 11 17 30 42 47 47 65 62 56 57 50 58 57 51 66 67 43 91 181 177 104 286 214 169 106 305 310 315 299 309 340 121 137 302 265 226 240 273 289 293 169 131 142 179 208 251 264 260 255 250 250 252 254 262 266
115 120 104 94 55 328 324 306 181 88 63 59 66 73 53 34 12 359 328 315 327 355 17 48 57 94 102 80 128 52 5 2 359 4 12 23 36 40 40 66 53 33 58 42 39 38 30 53 123 287 75 95 105 330 289 289 308 76 306 299 288 271 297 307 138 114 357 255 244 234 249 269 272 272 263 202 189 224 257 266 265 262 260 258 260 262 264 267
123 117 105 97 13 341 328 308 236 223 58 65 52 33 8 357 7 15 357 286 270 282 16 38 45 135 83 68 98 346 322 333 355 4 6 5 14 30 41 53 26 348 344 23 29 27 6 24 194 157 101 134 150 229 296 333 323 317 308 303 316 276 251 279 294 64 8 263 260 258 254 267 275 280 282 267 222 237 258 266 267 268 267 266 266 265 264 265
118 110 98 77 27 1 329 314 275 246 267 307 312 324 312 300 320 30 39 39 345 271 193 21 358 214 43 40 336 334 323 337 359 13 9 1 348 9 37 38 32 8 344 242 27 26 342 5 181 237 191 181 86 326 309 4 350 313 307 297 302 298 280 281 297 46 360 286 266 262 265 276 284 288 291 292 261 252 264 265 265 268 266 264 262 260 262 261
108 94 70 53 34 3 341 333 315 263 262 277 294 316 323 359 321 24 40 45 56 25 9 26 7 338 25 20 337 332 318 344 22 24 12 1 349 344 16 15 42 66 30 297 3 32 315 273 237 277 26 121 113 92 83 80 72 108 256 276 270 282 295 293 306 82 59 291 271 262 279 285 287 288 292 302 292 266 263 259 260 261 257 257 256 260 259 257
94 68 50 49 44 37 25 326 320 299 288 286 287 317 175 170 12 125 46 45 75 351 359 174 211 19 38 339 343 345 301 282 51 27 13 6 351 310 344 6 324 29 44 297 294 26 253 279 280 87 89 111 122 119 112 110 98 134 242 279 274 260 284 305 35 128 138 294 279 284 299 290 287 293 296 303 289 271 261 253 259 261 262 262 257 263 263 263
81 59 47 43 39 41 41 352 340 335 330 359 118 116 137 193 147 132 133 119 97 356 355 101 63 22 27 328 357 360 279 268 13 22 9 3 360 348 355 25 356 338 29 284 262 259 259 269 96 103 111 108 110 128 126 121 152 218 233 271 290 286 289 292 121 150 182 259 290 318 313 292 291 301 305 300 268 277 289 265 270 277 272 265 257 262 272 275
69 47 36 34 37 36 41 47 39 44 66 87 103 115 116 123 144 149 107 110 99 11 359 31 25 11 16 37 10 354 294 316 321 18 3 355 25 25 333 43 52 83 341 318 281 292 290 63 103 120 142 132 119 132 139 148 200 219 242 276 291 347 330 284 116 353 265 255 290 301 288 281 291 299 283 236 251 279 291 266 264 268 260 261 269 274 274 274
53 34 27 27 36 31 38 60 71 76 84 91 95 108 126 126 142 148 93 88 115 56 25 15 18 8 21 30 359 349 88 70 275 350 358 358 89 273 332 72 63 202 213 25 271 264 285 61 108 142 173 166 148 152 177 232 257 218 222 250 280 312 299 274 309 317 288 239 284 300 281 261 282 231 188 137 215 259 267 260 254 244 246 257 272 273 261 257
34 25 21 16 23 16 26 58 79 90 84 85 92 98 129 141 151 148 115 62 125 72 4 34 139 94 55 355 354 4 145 107 316 325 351 8 46 257 101 94 278 232 129 110 257 264 295 76 150 158 163 177 182 206 201 233 286 256 213 228 269 310 287 283 309 319 300 226 84 335 311 247 125 246 247 123 276 262 182 239 256 233 230 239 253 259 252 248
20 19 18 13 17 14 15 77 88 103 54 58 101 101 109 108 89 119 104 31 134 17 344 96 69 19 25 341 355 49 176 145 50 351 2 25 26 273 145 149 305 36 143 150 259 276 99 109 197 179 170 175 210 249 201 190 269 304 177 160 136 238 290 299 316 323 308 307 15 5 297 278 291 276 271 49 319 289 207 237 258 244 233 223 237 255 257 259
15 19 19 22 27 24 41 144 166 258 319 171 149 113 111 92 59 74 5 326 230 31 16 302 286 1 357 322 333 278 249 334 78 47 22 19 24 183 232 196 177 120 157 207 279 196 125 147 194 193 184 196 229 255 184 179 239 307 118 109 123 265 293 303 310 290 294 310 309 131 261 273 285 279 75 25 301 277 245 235 237 242 247 238 245 261 266 272
17 21 19 25 35 42 50 49 340 309 328 211 199 237 303 326 349 321 283 303 355 69 40 8 147 24 10 291 340 350 318 334 319 46 16 8 35 130 250 243 204 163 134 235 273 325 122 177 189 182 193 220 238 354 160 184 229 41 125 101 10 289 294 269 275 273 291 304 262 131 101 271 275 240 109 11 282 249 232 227 227 238 253 274 283 282 284 293
14 14 11 15 29 45 31 14 357 300 317 214 203 251 319 319 309 5 93 224 299 88 76 8 194 355 349 268 19 42 359 344 350 343 350 22 40 44 264 256 119 108 118 241 267 327 80 217 203 192 208 236 108 55 164 192 209 98 134 126 123 139 127 174 264 266 229 270 245 105 45 288 293 299 125 157 242 303 271 234 225 242 259 278 288 294 310 328
6 360 359 3 11 7 353 2 18 339 286 195 204 293 327 322 290 81 34 264 333 65 224 312 283 320 347 313 315 40 359 352 357 327 331 131 27 48 89 333 116 141 184 238 252 256 85 5 287 228 255 3 83 73 46 129 72 129 173 217 193 161 130 159 217 217 238 246 141 78 3 307 309 312 122 135 106 59 341 311 299 301 303 294 293 316 336 345
360 350 347 356 1 336 334 358 14 344 211 195 266 323 325 338 92 114 261 262 67 17 299 23 336 353 23 355 323 17 6 348 351 334 9 83 315 75 141 232 211 207 230 215 215 174 135 199 210 93 2 33 129 127 98 117 152 202 233 276 270 225 162 179 168 179 253 269 103 78 328 284 269 274 305 58 194 185 243 303 319 331 331 331 335 338 341 338
357 349 348 357 3 356 6 36 290 288 206 240 332 352 354 326 353 201 269 310 12 349 14 39 340 14 30 338 278 354 339 333 13 13 22 355 293 244 253 271 309 280 269 207 188 224 188 184 109 87 87 275 223 192 147 165 193 230 256 291 298 304 283 259 262 226 259 355 100 89 340 269 249 265 282 281 277 251 198 289 333 336 327 325 328 328 329 324
1 355 359 8 15 28 51 111 214 207 214 301 344 33 81 74 250 209 278 318 356 7 23 355 303 338 330 296 302 354 282 262 19 27 97 307 271 258 357 351 326 282 278 344 328 292 256 128 114 159 146 49 260 240 230 181 183 237 274 303 302 321 316 293 296 277 280 36 119 105 337 274 256 271 275 278 295 343 66 16 331 319 308 311 313 309 305 302
8 10 13 21 35 60 81 145 188 196 239 340 13 39 36 307 255 192 288 292 318 351 35 7 316 281 221 318 351 327 248 210 16 333 250 221 257 258 154 162 259 264 244 285 306 300 278 254 125 168 112 19 245 271 342 346 167 229 9 324 282 293 291 289 309 299 299 333 146 150 263 246 245 338 328 294 314 352 48 18 282 272 269 281 287 286 292 303
12 18 25 37 47 61 77 161 211 230 275 349 52 58 32 264 256 197 268 290 316 315 250 157 307 305 129 60 20 351 253 134 19 328 266 246 265 273 46 127 182 183 227 261 299 85 262 268 62 31 320 307 223 134 357 271 185 109 101 277 267 293 273 274 329 324 317 322 248 195 240 241 254 313 307 304 333 45 94 93 344 329 305 270 292 313 323 327
13 18 30 42 42 44 50 358 277 281 293 61 62 57 208 243 273 174 212 11 42 311 293 217 108 325 309 350 63 67 67 275 339 336 254 230 261 246 41 55 82 318 326 292 291 113 269 266 91 111 224 65 333 343 319 301 318 142 195 246 97 30 307 263 291 87 149 269 248 192 262 268 278 291 277 28 24 40 35 7 351 338 332 331 331 336 336 334
9 39 46 35 29 30 27 354 294 262 63 91 97 250 226 211 353 197 141 15 302 299 319 313 2 350 307 301 349 45 359 290 324 333 284 250 248 175 140 75 108 285 2 308 261 143 289 279 130 188 191 96 350 283 122 354 335 242 216 88 101 47 318 249 274 268 221 257 244 176 258 282 302 287 21 23 10 12 9 354 345 342 342 341 340 340 338 337
105 86 57 27 16 17 21 11 31 138 77 78 211 259 232 122 347 323 87 20 277 230 251 263 318 359 295 284 305 35 349 328 343 330 298 274 176 142 115 93 151 187 7 281 264 111 277 276 169 157 233 106 135 252 208 101 23 333 295 96 86 262 237 171 265 290 280 274 263 196 245 275 258 221 359 2 5 3 354 348 345 342 340 337 338 339 339 338
148 106 40 11 9 15 39 35 47 71 73 80 245 272 276 236 356 38 3 330 282 230 231 245 326 355 169 217 296 358 342 315 331 338 301 280 187 131 116 81 165 175 198 245 276 81 207 277 300 148 200 26 176 222 226 146 109 63 193 160 35 291 272 263 272 295 286 281 285 276 244 270 232 147 3 351 4 357 343 342 340 333 332 334 337 337 337 336
101 129 301 352 5 26 64 54 48 55 61 48 238 160 16 272 135 88 325 307 244 241 251 195 173 272 237 193 260 307 264 261 265 271 248 261 303 154 134 317 168 160 199 254 273 250 172 239 275 169 175 261 230 202 255 167 137 160 190 190 172 181 268 287 252 227 278 280 287 280 263 277 165 127 347 353 3 345 334 336 332 329 332 335 336 335 335 333
122 169 305 343 359 54 75 54 47 44 76 119 224 190 182 245 130 117 290 272 282 342 343 174 167 231 280 258 228 198 234 251 223 244 244 208 249 253 100 8 349 122 188 211 214 242 203 220 265 265 242 253 242 72 21 1 56 194 228 220 204 187 204 266 259 171 155 273 285 286 280 289 31 155 286 7 348 333 339 338 333 333 334 334 335 334 333 330
119 174 321 347 348 88 83 61 48 24 184 149 323 232 175 188 165 137 152 210 258 330 50 54 160 191 210 247 267 192 238 259 203 215 251 218 230 288 77 50 324 318 277 251 199 273 290 250 257 263 262 271 68 78 51 25 82 79 313 281 173 188 222 261 278 313 182 247 325 301 272 279 254 168 206 314 335 342 345 339 334 333 332 333 333 331 330 329
114 177 34 19 6 94 76 60 62 23 102 245 320 108 134 199 173 142 187 205 216 185 165 204 196 211 217 224 244 197 212 237 209 197 244 245 245 51 82 63 295 247 231 274 200 145 214 240 251 265 266 149 114 125 107 67 137 168 156 155 185 189 318 281 303 350 269 242 251 267 260 251 135 154 242 314 336 341 339 337 335 330 329 332 332 331 330 329
72 200 37 16 9 97 139 62 193 323 309 285 353 127 185 230 181 175 218 213 209 187 188 215 209 199 130 138 230 215 210 237 229 209 231 250 247 76 74 24 302 210 207 305 358 154 226 220 227 291 294 280 148 162 141 100 186 212 199 135 154 80 75 60 134 108 268 244 236 263 272 273 306 308 312 324 333 334 334 336 334 329 329 331 331 330 329 328
96 99 288 358 24 59 99 186 149 141 187 316 329 17 340 207 170 285 268 202 218 211 175 47 348 134 118 142 227 229 233 242 242 5 26 265 254 93 76 7 288 258 295 327 322 271 265 255 218 281 295 298 308 324 333 337 355 233 224 144 164 156 138 240 258 247 265 240 208 255 276 291 301 304 312 324 332 332 333 332 330 329 330 329 328 328 326 325
145 70 301 337 29 57 64 11 93 123 142 224 272 323 333 175 130 6 268 202 131 130 325 97 151 166 142 189 247 248 232 222 229 329 308 254 263 81 69 338 287 335 338 328 327 301 280 281 246 252 262 277 306 333 41 347 309 295 301 307 156 146 155 222 262 265 277 291 246 243 261 284 296 302 315 329 333 331 329 329 329 330 329 328 326 324 323 323
124 117 29 321 14 51 63 46 22 72 128 247 233 139 280 274 345 46 193 253 76 158 246 171 174 211 182 168 251 263 246 194 212 281 260 245 276 26 95 236 323 349 329 308 333 2 272 276 263 250 256 267 299 309 305 301 289 290 305 307 261 132 149 187 229 257 292 317 284 258 259 278 293 307 321 331 331 329 329 330 331 330 328 327 324 322 324 327
53 123 63 340 277 68 55 35 38 76 70 358 220 139 299 297 299 262 171 38 11 213 232 203 205 225 212 154 207 266 299 236 217 232 242 272 312 313 244 168 87 343 330 307 13 11 253 270 358 171 264 268 283 291 291 256 262 270 286 296 303 150 170 194 236 258 255 255 276 287 290 290 296 308 321 331 331 329 330 330 331 330 327 324 323 325 329 333
67 108 58 350 19 107 49 346 63 102 76 42 48 194 205 221 243 254 157 148 194 190 222 250 237 216 202 184 201 243 253 251 262 261 209 176 277 282 295 163 102 353 326 152 63 31 226 259 75 130 283 287 282 295 336 153 215 214 231 292 328 211 213 220 248 263 251 241 262 283 291 291 292 305 320 330 331 330 331 331 330 329 325 322 323 328 334 334
154 159 142 50 71 87 18 352 82 103 83 46 273 199 190 210 224 275 196 203 231 164 183 242 265 152 164 184 209 232 233 256 301 303 164 195 271 242 271 296 107 63 355 95 62 29 256 302 72 82 296 307 96 88 73 199 220 190 170 35 13 273 244 235 253 274 268 259 270 279 283 287 303 323 328 328 330 335 335 333 331 328 324 323 327 333 335 331
115 129 143 123 99 26 327 32 70 332 143 163 231 178 190 213 216 277 245 213 274 195 187 221 244 93 89 187 224 252 289 333 319 329 21 296 296 301 329 330 322 174 143 100 21 19 307 295 71 23 308 302 133 156 300 204 192 185 152 34 18 356 328 309 277 287 285 283 294 294 290 309 332 335 330 327 333 338 337 334 330 324 321 326 333 335 331 328
128 100 119 109 86 345 331 63 69 305 200 220 196 164 207 254 151 306 293 175 41 10 238 253 111 151 268 235 242 288 353 7 338 356 12 287 352 45 49 46 37 26 150 145 102 19 316 267 350 5 298 275 229 325 325 141 159 191 131 41 15 353 334 320 301 303 294 282 302 311 316 330 334 334 332 332 336 338 337 335 326 319 324 335 336 332 328 326